EHI
19 19 17 15 17 24 29 30 28 27 28 29 29 28 24 21 22 24 25 23 19 17 17 11 8 9 8 4 2 5 7 8 8 7 7 7 7 8 10 8 7 9 12
23 24 23 20 21 28 32 31 29 28 28 28 28 27 24 21 21 24 26 26 21 18 16 13 10 9 8 6 5 7 8 7 6 7 6 6 6 6 7 6 7 10 11
29 30 28 26 29 34 37 36 35 33 30 28 26 25 24 23 23 27 31 30 24 18 15 13 11 10 9 8 10 12 11 8 6 6 7 7 7 7 6 6 9 12 13
33 32 32 33 36 37 39 42 45 43 37 32 27 25 25 25 28 33 37 35 29 21 17 14 12 11 9 9 12 14 13 11 8 7 8 10 11 12 10 9 9 11 12
31 33 36 39 39 35 38 47 54 53 46 39 32 28 26 26 29 36 40 38 34 28 22 17 15 13 10 8 10 12 13 11 10 9 10 13 15 15 13 9 7 7 8
30 34 42 46 41 35 38 51 63 63 54 45 38 34 31 29 30 34 37 36 35 32 26 21 17 15 12 10 9 10 11 12 11 11 12 15 17 15 12 8 6 6 7
30 37 48 53 48 42 45 58 70 70 60 48 41 38 36 34 33 34 33 31 30 31 28 24 21 18 14 12 12 12 12 13 14 14 15 17 18 17 14 11 8 8 9
31 37 48 54 53 51 55 64 72 72 64 53 46 42 39 35 34 35 33 29 26 27 29 27 23 20 14 12 14 13 13 16 17 16 17 17 18 19 18 15 14 12 10
29 33 41 48 50 52 57 65 72 73 65 57 52 48 43 37 34 34 34 31 25 24 28 27 23 20 15 14 15 13 13 17 18 18 19 19 18 18 19 18 17 15 14
26 28 33 40 43 45 51 60 69 71 66 59 54 51 48 43 38 36 36 34 28 26 28 27 24 21 18 17 16 15 16 18 19 19 20 21 19 18 18 17 15 16 16
26 27 30 35 39 42 46 55 63 66 64 58 52 49 49 48 45 41 38 36 34 32 31 31 29 26 23 22 22 21 22 21 20 20 21 22 21 21 20 17 15 15 17
29 31 34 38 43 46 49 54 61 64 61 57 52 48 49 51 50 46 42 40 38 38 37 35 33 31 29 28 28 27 26 24 22 21 22 24 24 24 24 20 17 17 19
31 36 43 48 51 55 57 59 61 62 60 57 54 52 51 52 51 48 45 44 42 40 39 37 35 34 33 32 31 29 27 25 23 23 23 25 26 26 25 21 19 20 20
34 43 54 58 60 64 66 66 63 60 61 62 60 60 59 56 54 52 49 47 44 41 40 38 37 37 38 37 34 30 27 27 27 26 26 26 25 25 23 20 19 20 20
38 49 60 64 65 67 68 66 63 62 64 66 65 65 64 60 58 56 53 50 47 44 43 42 41 41 38 35 33 30 29 30 30 29 27 25 23 21 19 18 18 19 19
38 47 60 68 68 66 64 63 64 66 67 65 63 63 63 61 59 56 54 54 51 47 46 46 45 42 34 26 22 23 26 30 31 29 26 23 20 18 17 16 16 15 15
33 41 54 65 67 64 62 62 63 66 66 62 59 59 61 60 58 54 55 56 54 50 48 48 47 42 32 19 11 10 17 24 29 29 26 22 20 19 17 16 15 13 11
33 38 47 57 62 62 61 62 62 64 66 61 57 59 61 60 57 55 56 56 53 51 51 49 47 42 33 21 11 7 11 20 27 29 27 24 21 18 16 15 14 13 12
38 41 43 48 54 57 60 62 62 64 67 65 60 61 62 60 58 58 57 54 50 50 51 49 45 41 33 24 14 9 12 19 24 27 26 23 18 15 14 13 14 14 13
39 41 41 45 52 56 60 61 60 62 66 66 65 64 62 60 59 58 57 53 49 47 46 45 42 38 32 24 14 10 14 20 23 25 24 19 14 12 11 12 12 13 13
36 39 44 50 57 59 59 59 60 61 63 63 63 64 60 56 55 57 56 52 47 44 40 38 37 36 32 24 15 10 13 19 23 23 21 17 12 9 8 9 11 12 12
38 42 51 58 61 59 58 59 61 63 63 61 61 61 58 52 50 53 53 49 45 41 36 32 32 33 32 25 16 10 9 14 20 20 16 12 8 5 3 5 7 8 8
45 47 54 61 61 59 58 59 61 63 63 62 61 62 60 52 47 46 46 44 42 39 35 32 31 32 31 26 19 11 5 6 12 14 11 6 3 1 1 1 3 5 6
47 49 54 59 59 58 57 56 57 59 60 60 59 59 57 51 44 41 41 41 38 36 35 34 32 32 30 26 21 15 8 6 8 9 7 4 3 3 3 3 4 7 9
46 49 55 58 58 58 56 53 52 55 57 56 55 52 47 43 40 36 34 32 29 27 26 27 27 25 23 20 17 14 12 9 8 8 8 8 7 7 7 8 9 10 11
47 50 55 57 58 58 56 51 51 53 54 54 53 47 40 37 36 33 28 23 19 16 15 17 18 16 14 12 10 9 9 8 7 7 8 9 10 10 9 9 10 11 12
Wind_Speed
12 12 11 10 10 8 7 6 5 4 3 2 2 2 1 1 2 2 3 2 1 1 1 1 1 1 1 1 2 2 1 1 0 1 1 0 1 1 2 1 1 2 2
13 12 11 10 10 9 8 6 5 5 4 3 2 2 2 2 2 2 3 2 1 0 0 1 1 1 1 1 1 1 1 2 1 1 0 0 0 1 1 1 1 1 1
15 14 12 11 11 10 9 7 6 6 4 4 2 2 2 1 1 2 2 2 1 1 1 1 1 1 1 1 1 1 1 1 2 1 0 0 0 1 1 1 1 1 1
15 15 14 12 11 11 10 8 7 6 5 4 3 3 2 2 2 2 2 2 2 1 1 1 0 1 1 1 1 1 1 1 2 1 1 1 1 1 0 1 1 1 1
15 15 15 13 11 11 11 9 8 6 5 4 3 2 2 1 1 2 3 3 2 1 1 1 0 0 1 1 1 1 1 1 2 2 1 1 0 1 1 1 0 1 1
14 14 14 13 11 11 10 11 9 7 6 5 4 3 2 1 1 1 1 2 2 2 2 2 1 1 0 1 1 1 1 1 2 2 2 1 1 1 1 1 1 0 1
13 14 14 14 12 11 10 10 10 8 7 6 5 4 3 2 2 2 2 2 2 2 2 1 1 1 1 1 0 1 1 1 2 2 2 2 2 1 1 1 1 1 0
12 13 14 14 13 12 10 10 10 9 8 7 5 4 4 3 2 3 2 1 1 2 3 2 1 1 1 1 0 1 1 1 2 2 2 2 2 1 0 1 1 1 0
13 13 13 13 14 13 12 11 11 9 8 7 6 5 4 4 3 3 3 2 1 2 3 2 1 1 1 1 1 1 1 1 1 2 2 2 2 1 1 1 1 1 1
12 11 12 12 11 11 11 10 11 10 8 7 6 7 6 4 3 2 3 2 1 1 2 2 2 1 1 1 1 1 1 1 1 1 1 2 2 1 1 1 1 1 1
11 11 10 10 11 11 11 10 10 10 9 8 7 5 6 6 5 3 3 3 2 2 2 2 2 2 2 2 1 2 2 2 2 2 1 1 1 1 1 0 0 0 1
10 10 10 10 10 10 10 10 10 10 9 8 7 6 5 5 5 5 4 3 3 3 3 3 2 3 2 2 2 2 1 1 2 1 1 2 1 1 1 1 0 0 1
8 9 9 8 7 8 8 9 9 9 10 9 8 7 6 6 5 5 4 4 3 3 3 2 2 3 2 2 2 2 2 2 1 1 1 2 1 1 1 1 1 0 0
7 8 8 7 6 6 6 6 7 8 8 8 8 7 7 6 6 4 4 4 4 3 3 3 3 3 2 2 2 2 2 2 1 1 1 2 1 1 1 1 1 1 1
8 7 7 7 6 6 6 5 6 6 6 7 7 6 6 5 5 5 5 4 4 4 3 3 3 3 3 3 2 3 3 2 2 2 2 1 1 2 0 1 0 1 1
6 6 6 6 6 6 6 6 6 5 6 6 6 5 5 5 5 5 5 4 4 4 3 4 3 4 4 3 3 3 2 2 2 2 2 1 2 3 3 2 2 2 2
4 4 5 5 5 6 5 6 6 6 6 6 6 6 6 6 5 6 5 5 4 4 4 4 4 3 2 2 2 2 2 2 3 3 2 3 2 3 2 3 4 3 4
3 4 4 5 5 5 5 4 6 6 6 6 6 6 6 6 6 5 5 4 4 4 4 4 4 3 4 4 4 3 4 3 3 3 3 3 2 2 2 3 3 3 2
3 2 3 4 5 6 5 5 5 6 6 6 6 6 6 5 5 5 4 4 3 4 4 3 4 4 4 5 5 5 4 4 4 3 3 3 2 2 2 2 2 2 2
2 2 3 3 3 4 5 5 5 5 5 5 4 4 4 5 5 4 4 3 3 4 4 4 4 5 5 6 7 6 4 5 4 3 3 3 3 3 3 3 2 3 3
3 3 3 2 3 4 4 4 3 3 3 3 3 3 4 4 4 4 4 3 4 4 4 4 4 5 5 6 7 7 4 4 4 4 3 3 4 5 5 4 3 4 3
2 3 3 3 4 4 4 4 3 3 3 3 3 3 3 4 4 3 3 4 4 5 5 4 4 4 3 4 5 7 7 5 3 3 2 2 4 4 5 4 4 4 3
1 2 3 4 4 3 3 3 3 3 3 4 3 3 3 3 3 4 4 4 3 4 5 4 4 4 3 3 5 8 7 6 4 2 1 1 4 3 3 5 6 4 3
1 1 2 3 3 3 2 2 2 3 3 3 3 3 3 3 2 2 3 3 4 4 4 4 4 3 2 2 3 4 4 5 4 4 2 2 4 4 4 4 4 4 4
1 1 1 2 2 3 3 2 2 2 2 2 3 3 3 3 2 2 2 3 3 3 3 3 2 2 2 1 2 3 3 3 3 3 3 3 3 3 3 4 4 4 4
0 1 1 2 2 2 2 2 2 2 2 3 3 3 3 3 3 3 2 1 2 2 2 2 2 1 2 2 3 3 2 3 3 3 3 3 2 3 3 3 3 3 4
Wind_Direction
163 161 162 158 154 149 152 155 153 146 156 169 167 163 147 169 140 137 127 125 92 79 45 15 332 351 30 10 15 9 336 317 298 317 339 262 164 152 143 137 110 99 97
165 163 165 164 160 157 160 158 158 160 174 167 168 176 165 176 146 126 127 133 115 27 159 52 334 18 19 15 8 356 332 315 313 295 354 341 35 22 90 114 137 120 106
169 168 170 171 168 164 165 168 166 165 176 170 178 181 163 167 142 139 141 139 146 159 19 74 351 351 350 10 332 323 303 304 306 319 268 269 256 53 42 49 77 83 97
169 170 173 173 171 168 167 161 158 162 164 171 188 189 181 180 175 160 146 151 163 176 135 115 33 346 7 13 295 28 313 304 311 315 266 221 156 184 87 7 44 74 81
171 172 172 170 172 170 166 161 158 161 166 180 191 205 196 193 160 144 153 161 173 190 160 143 132 305 335 335 345 2 338 331 323 309 306 311 281 234 193 211 309 18 38
169 168 165 164 171 171 168 163 159 164 170 180 186 198 212 202 161 164 170 187 171 171 171 155 151 188 261 292 312 307 308 319 314 308 311 299 281 258 212 199 185 109 24
165 164 165 166 170 172 170 161 158 166 172 180 188 189 204 203 188 212 200 217 177 156 150 165 164 196 217 246 286 272 302 296 295 298 300 295 275 248 188 181 177 134 114
163 165 167 167 172 173 170 163 160 166 173 181 187 187 193 207 204 208 212 219 203 141 142 165 167 211 253 269 284 282 259 255 285 296 302 296 294 301 193 180 167 169 184
166 167 168 169 173 173 172 169 162 165 174 181 181 183 188 211 213 186 208 211 201 168 140 163 182 206 220 250 247 269 280 305 297 301 297 288 290 286 238 213 184 177 213
163 168 168 168 170 170 168 167 164 167 173 180 186 186 189 199 204 199 197 198 202 183 145 176 188 209 221 226 241 273 259 252 252 262 297 305 311 323 297 236 198 213 195
157 164 167 166 166 167 167 167 166 167 174 180 184 192 179 188 190 198 200 197 206 198 197 205 208 221 227 224 226 252 260 271 286 287 299 298 294 316 300 333 311 205 131
155 154 159 165 168 168 169 168 171 172 177 179 180 189 182 181 186 193 195 193 195 204 210 212 213 225 222 218 225 248 256 262 278 289 312 299 294 305 308 2 331 106 149
150 149 148 151 159 166 165 167 172 173 177 180 182 182 183 186 193 194 184 187 195 205 213 212 218 228 232 217 223 236 248 263 272 285 288 287 285 290 295 269 247 201 160
146 144 139 144 153 159 154 160 168 172 176 176 181 182 187 189 190 189 184 186 193 207 212 213 222 226 232 221 220 234 236 250 259 262 274 277 266 272 274 255 235 217 181
142 136 141 147 156 159 153 160 170 169 173 174 181 183 182 182 184 187 192 190 196 212 210 212 218 226 227 227 224 230 231 230 244 232 231 248 123 103 154 261 216 235 211
136 139 142 151 159 160 163 165 168 169 168 177 184 178 178 181 189 192 192 193 198 213 213 212 221 227 239 235 222 219 246 233 238 241 226 204 167 170 181 187 200 220 228
141 147 146 156 162 165 166 168 171 171 172 180 185 180 180 185 191 201 195 198 202 210 218 218 217 217 229 234 245 242 248 259 256 254 242 258 222 180 180 185 207 229 243
148 151 156 164 174 167 161 167 174 174 176 183 189 185 186 190 190 196 198 199 201 209 216 219 220 213 217 215 219 233 232 249 253 240 227 233 225 241 210 212 209 208 222
108 136 154 175 171 166 164 168 175 174 179 187 191 188 188 191 196 200 199 199 206 213 218 216 216 219 215 215 214 215 226 234 243 233 236 234 231 231 229 219 227 230 226
107 120 134 159 161 153 152 162 174 172 185 189 189 187 186 191 197 201 200 202 209 218 221 223 220 223 221 213 212 213 231 231 232 224 221 225 231 204 206 214 219 227 238
123 125 130 137 127 126 134 152 160 181 181 174 177 185 191 195 201 198 194 197 208 217 224 228 226 224 224 208 207 207 231 250 242 231 221 212 196 199 212 217 226 230 234
117 130 126 122 119 126 139 158 173 175 166 165 176 193 203 215 206 197 204 208 213 216 220 226 233 229 214 201 203 208 220 248 263 259 245 208 170 188 212 221 240 246 253
80 112 116 118 127 139 150 180 182 165 166 167 179 193 208 223 211 202 211 218 220 226 225 221 229 226 213 200 200 205 216 229 238 257 286 239 193 200 217 223 228 239 245
63 101 120 134 138 142 149 185 163 158 163 174 177 187 207 214 213 218 216 218 225 232 232 231 228 222 212 207 187 189 205 215 225 242 238 218 223 240 247 233 228 228 238
49 115 141 141 138 137 144 157 158 157 175 185 187 203 212 209 211 217 226 226 238 237 234 245 237 234 224 251 196 195 196 205 206 209 216 220 212 226 233 231 227 228 231
254 166 156 154 151 150 151 154 180 176 185 198 204 211 219 211 206 205 225 278 248 250 224 210 214 236 195 180 175 183 187 183 168 185 222 228 229 230 246 251 242 237 240